Погода в Астане

Погода в Астане : погода сейчас, прогноз погоды и архив. Всё, что Вы хотите узнать о погоде в Астане!

Хотите узнать прогноз погоды Астана? Тогда Вам сюда: Погода Астана

Поиск расширенной информации на нашем сайте:

Другие новости

Новости СМИ2

Главная страница сайта

Новости сайта

03.07.2017

Напоминаем, что на нашем специализированном сайте Метеоцентр.Азия вы можете получить высокодетализированные автоматические прогнозы погоды по пунктам России, СНГ и мира в авиационном формате (включающие направление и скорость ветра, видимость, явления погоды, количество и форму облачности, нижнюю и верхнюю границу облачности).


Погода в Астане - сегодня

Время (UTC), дата Ветер
(°,м/с) 
Видим.   Явления Облачность Т
(°С)
Тd
(°С)
f(%) Тe
(°С)
Pmin
(гПа)
dP
(гПа)
Po
(мм)
O2
(г/м3)
Тmin Tmax R s Состояние
почвы
09 15.04.18 030 (СВ) 10 км    3/0 верхняя 
[Ci fib]
+8.9 -5.7 35 +9  1015.4  -1.7  730  285           
12 15.04.18 360 (С) 10 км    6/0 верхняя 
[Ci fib]
+9.4 -5.3 35 +10  1013.8  -1.5  729  284           
15 15.04.18 320 (СЗ) н/о    3/0 верхняя 
[Ci fib]
+5.2 -3.9 52 +6  1014  -0.4  729  289    +10.3       
18 15.04.18 тихо ()   н/о    ясно 
+2.7 -3 66 +3  1013.8  -0.6  728  291    +10.3       
21 15.04.18 240 (ЮЗ) н/о    ясно 
+1.6 -3.3 70 +2  1012.7  -1.2  727  292           
00 16.04.18 230 (ЮЗ) 10 км    ясно 
+0.8 -3.3 74 +1  1012.1  -0.7  727  292           
06 16.04.18 250 (З) 10 км    4/4 1000 м 
[Sc]
+10 -4 37 +8  1010.4  0.1  727  283  +0.6         
09 16.04.18 280 (З) 10 км    9/9 1470 м 
[Sc]
+10.4 -1.6 43 +9  1010.3  727  282           
15 16.04.18 260 (З) н/о    10/9 1000 м средняя 
[Sc|Ac lent]
+7.4 -0.1 59 +7  1012.9  1.2  728  286    +11.6       
18 16.04.18 260 (З) н/о    10/6 1000 м средняя 
[Sc|Ac lent]
+6.5 +1.4 70 +6  1013.2  0.2  728  286    +11.6       
00 17.04.18 тихо ()   10 км    10/0 средняя 
[Ac und]
+1 -0.8 88 +1  1016  1.3  730  293           
06 17.04.18 060 (СВ) 10 км    10/8 1000 м средняя 
[Sc|Ac lent]
+6.7 -1.7 55 +6  1016.4  0.2  731  287  +0.8         
09 17.04.18 030 (СВ) 10 км    10/8 1000 м средняя 
[Sc|Ac cast]
+7.1 -3.2 48 +6  1015.8  -0.5  730  287           
15 17.04.18 080 (В) н/о    ясно 
+2.9 -4.3 59 +2  1018.1  0.9  731  292    +8.3       
18 17.04.18 070 (В) н/о    ясно 
+1.2 -5.3 62 +2  1019.1  0.7  732  294    +8.3       
21 17.04.18 050 (СВ) н/о    ясно 
-2.1 -4.8 82 -2  1019.9  0.2  732  298           
00 18.04.18 тихо ()   10 км    10/0 средняя 
[Ac und]
-1.6 -3.6 86 -2  1020  0.2  732  297           
06 18.04.18 360 (С) 10 км    10/5 1000 м верхняя 
[Cu med, cong|Ci]
+7.1 -7 36 +7  1019.8  733  289  -3.3         
09 18.04.18 320 (СЗ) 10 км    10/5 1000 м верхняя 
[Cu med, cong|Ci]
+9.4 -6.1 33 +10  1018.4  -1  732  286           
12 18.04.18 200 (Ю) 10 км    10/0 верхняя 
[Sc diur, vesp|Ci]
+9.2 -6.6 32 +10  1016.4  -1.9  731  286           
21 18.04.18 030 (СВ) н/о  слаб. ливневой снег  10/10 200 м кучево-дожд. 
[Cb cap]
-1.6 -2.3 95 -5  1013.9  -0.7  728  295           
03 19.04.18 020 (С) 10 км  {ливн. осадки}  8/8 270 м 
[Sc]
-1.3 -4 82 -5  1020.3  3.2  733  297      10  равномерный
сухой снег
100% 
09 19.04.18 020 (С) 10 км    ясно 
+2.2 -6.9 51 +2  1022.5  0.5  735  294           
12 19.04.18 200 (Ю) 10 км    3/0 верхняя 
[Ci fib]
+4.3 -6.9 44 +5  1021.9  -0.3  734  292           
15 19.04.18 тихо ()   н/о    ясно 
+1.8 -7.8 49 +2  1022.5  0.2  734  295    +4.9       
Время (UTC), дата Ветер
(°,м/с) 
Видим.   Явления Облачность Т
(°С)
Тd
(°С)
f(%) Тe
(°С)
Pmin
(гПа)
dP
(гПа)
Po
(мм)
O2
(г/м3)
Тmin Tmax R s Состояние
почвы

Для получения пояснительной информации подведите курсор к названию столбца.

ПОГОДА в Астане - архив

Всё, что Вы хотите узнать о погоде в Астане - удобно и подробно!

Выберите нужную дату (начиная с 1 января 2015* года) и нажмите кнопку "Найти".
Будут отображены архивные сводки погоды по пункту Астана, начиная с указанной даты.


Отображать данные в формате CSV (для использования в таблицах Excel)


Внимание! Наш архив погоды предназначен исключительно для личного некоммерческого использования в познавательных целях. Если Вам необходимы официальные справки о состоянии погоды (для производственных, юридических, коммерческих и т.п. целей), обращайтесь в органы Росгидромета.

*Примечание: данная дата относится к архиву по метеостанциям СССР (Россия, СНГ, Балтия).
Архив по метеостанциям Зарубежной Европы и Азии (кроме Китая) хранится 10 дней, по другим регионам земного шара (Китай, Африка, Америка, Австралия, Океания) - 1 день.

Астана - район местоположения метеостанции


Название, широта, долгота, высота метеостанции:
Астана (город) 51.1°ш. 71.4°д. 350 м над ур. моря [Казахстан]

Дополнительная информация

В oтличие oт бoльшинства пoгoдных сайтoв мы публикуем пoдрoбную метеoинфoрмацию в детальнoм прoфессиoнальнoм фoрмате.

Характеристики температуры и влажнoсти вoздуха измеряются на высoте 2 м в тени вдали oт зданий и деревьев.
Скoрoсть ветра измеряется на высoте 10 м (на урoвне рoста челoвека скoрoсть ветра ниже в 1.5-2 раза). Если метеoстанция нахoдится в гoрoде или в лесу, тo скoрoсть ветра занижена на 2-4 м/с пo сравнению с oткрытым местoм. Скoрoсть ветра над акватoриями крупных рек и oзёр, а также на вершинах хoлмoв на 2-5 м/с выше, чем в oбычных услoвиях.
Атмoсфернoе давление в разных тoчках местнoсти мoжет значительнo oтличаться oт давления на метеoстанции, в зависимoсти oт услoвий рельефа (при пoдъёме на 10 м давление пoнижается примернo на 1 мм рт.ст.).